Rogers, AR

11:00 PM CST on December 10, 2017 (GMT -0600)
Rogers Municipal-Carter

Weather History for KROG - March, 2013

Change the Weather History Date:

Wednesday, March 20, 2013

  Actual Average Record
Temperature  
Mean Temperature 36 °F -  
Max Temperature 46 °F 56 °F 84 °F (2017)
Min Temperature 28 °F 37 °F 28 °F (2001)
Degree Days  
Heating Degree Days 28    
Moisture  
Dew Point 22 °F    
Average Humidity 62    
Maximum Humidity 93    
Minimum Humidity 30    
Precipitation  
Precipitation 0.00 in - - ()
Sea Level Pressure  
Sea Level Pressure 30.28 in    
Wind  
Wind Speed 6 mph (NNW)    
Max Wind Speed 16 mph    
Max Gust Speed 21 mph    
Visibility 10 miles    
Events      
Averages and records for this station are not official NWS values.
T = Trace of Precipitation, MM = Missing Value Source: NWS Daily Summary

Daily Weather History Graph

Daily Weather History Graph

Search for Another Location

Airport or City:

Trip Planner

Search our weather history database for the weather conditions in past years. The results will help you decide how hot, cold, wet, or windy it might be!

Date:

Astronomy

Mar. 20, 2013 Rise Set
Actual Time 7:19 AM CDT 7:28 PM CDT
Civil Twilight 6:53 AM CDT 7:54 PM CDT
Nautical Twilight 6:23 AM CDT 8:24 PM CDT
Astronomical Twilight 5:53 AM CDT 8:54 PM CDT
Moon 1:13 PM CDT (3/20) 2:50 AM CDT (3/20)
Length of Visible Light 13h 00m
Length of Day
12h 08m
First Quarter, 59% of the Moon is Illuminated
Mar 20
First Quarter
Mar 27
Full
Apr 2
Last Quarter
Apr 10
New
Apr 18
First Quarter

Hourly Weather History & Observations

Time (CDT) Temp. Windchill Dew Point Humidity Pressure Visibility Wind Dir Wind Speed Gust Speed Precip Events Conditions
12:57 AM 37.0 °F 34.5 °F 27.0 °F 67% 30.27 in 10.0 mi East 3.5 mph - N/A   Clear
1:57 AM 36.0 °F 33.3 °F 27.0 °F 70% 30.26 in 10.0 mi SE 3.5 mph - N/A   Clear
2:57 AM 35.1 °F - 27.0 °F 72% 30.26 in 10.0 mi Calm Calm - N/A   Clear
3:57 AM 30.9 °F - 27.0 °F 85% 30.26 in 10.0 mi Calm Calm - N/A   Clear
4:57 AM 32.0 °F - 27.0 °F 82% 30.26 in 10.0 mi Calm Calm - N/A   Clear
5:57 AM 30.0 °F - 26.1 °F 85% 30.27 in 10.0 mi Calm Calm - N/A   Clear
6:57 AM 28.0 °F 22.8 °F 25.0 °F 88% 30.31 in 10.0 mi NW 4.6 mph - N/A   Clear
7:53 AM 28.4 °F 23.3 °F 26.6 °F 93% 30.31 in 10.0 mi WNW 4.6 mph - N/A   Mostly Cloudy
7:57 AM 28.4 °F 23.3 °F 26.6 °F 93% 30.31 in 10.0 mi WNW 4.6 mph - N/A   Scattered Clouds
7:59 AM 30.0 °F 25.2 °F 27.0 °F 88% 30.34 in 10.0 mi WNW 4.6 mph - N/A   Scattered Clouds
8:02 AM 30.2 °F 25.4 °F 26.6 °F 86% 30.32 in 10.0 mi WNW 4.6 mph - N/A   Mostly Cloudy
8:08 AM 30.2 °F 23.4 °F 28.4 °F 93% 30.32 in 10.0 mi NW 6.9 mph - N/A   Scattered Clouds
8:32 AM 33.8 °F 24.8 °F 28.4 °F 81% 30.34 in 10.0 mi NNW 12.7 mph - N/A   Mostly Cloudy
8:57 AM 34.0 °F 24.6 °F 28.9 °F 82% 30.38 in 10.0 mi North 13.8 mph 20.7 mph N/A   Overcast
9:02 AM 33.8 °F 26.4 °F 28.4 °F 81% 30.35 in 10.0 mi North 9.2 mph 20.7 mph N/A   Overcast
9:57 AM 35.1 °F 27.4 °F 26.1 °F 70% 30.38 in 10.0 mi North 10.4 mph - N/A   Overcast
10:57 AM 37.9 °F 30.9 °F 24.1 °F 57% 30.38 in 10.0 mi NNE 10.4 mph - N/A   Overcast
11:57 AM 42.1 °F 36.1 °F 23.0 °F 47% 30.37 in 10.0 mi NNW 10.4 mph - N/A   Mostly Cloudy
12:57 PM 43.0 °F 36.4 °F 16.0 °F 34% 30.34 in 10.0 mi NNW 12.7 mph 19.6 mph N/A   Mostly Cloudy
1:57 PM 43.0 °F 35.7 °F 12.9 °F 30% 30.31 in 10.0 mi North 15.0 mph - N/A   Clear
2:57 PM 45.0 °F 37.9 °F 15.1 °F 30% 30.26 in 10.0 mi NW 16.1 mph 19.6 mph N/A   Clear
3:57 PM 45.0 °F 40.6 °F 15.1 °F 30% 30.24 in 10.0 mi NW 8.1 mph - N/A   Clear
4:57 PM 45.0 °F 38.2 °F 15.1 °F 30% 30.22 in 10.0 mi NW 15.0 mph - N/A   Clear
5:57 PM 45.0 °F 38.5 °F 16.0 °F 31% 30.20 in 10.0 mi NW 13.8 mph 18.4 mph N/A   Clear
6:57 PM 42.1 °F 35.2 °F 14.0 °F 32% 30.19 in 10.0 mi NNW 12.7 mph - N/A   Clear
7:57 PM 39.0 °F 36.8 °F 12.9 °F 34% 30.18 in 10.0 mi NNW 3.5 mph - N/A   Clear
8:57 PM 37.0 °F - 16.0 °F 42% 30.17 in 10.0 mi Calm Calm - N/A   Clear
9:57 PM 36.0 °F - 14.0 °F 41% 30.17 in 10.0 mi Calm Calm - N/A   Clear
10:57 PM 34.0 °F 29.8 °F 17.1 °F 50% 30.17 in 10.0 mi NNE 4.6 mph - N/A   Clear
11:57 PM 34.0 °F 28.8 °F 16.0 °F 48% 30.14 in 10.0 mi East 5.8 mph - N/A   Clear